Portada
METAR-TAF:

METAR-TAF

Aeroports :

Silver Bay Municipal Airport

Silver Bay, Minnesota, Estats Units d'Amèrica

latitud: 47-12N, longitud: 091-24W, altitud: 331 m

Observació

L'informe es va fer fa 9 minuts, a les 07:24 UTC
Vent calma
Temperatura 4°C
Humitat 100%
Pressió 1013 hPa
Visibilitat: 16.1 km
Cel clar

METAR: KBFW 260724Z AUTO 00000KT 10SM CLR 04/04 A2990 RMK AO2

Hora: 02:33 (07:33 UTC)


TAF: manca

Observacions i pronòstics meteorològics de més de 4000 aeroports (METAR i TAF).

Les estacions disponibles són els punts grocs i vermells al mapa.

Posi el ratolí al punt desitjat per veure el nom de l'estació.

Feu clic per veure les observacions i els pronòstics meteorològics.

Per canviar el mapa: feu clic els botons verds amb una creu de color negre per apropar; al botó verd amb un guió per allunyar la imatge; o en les fletxes verdes per a mapes adjacents.


METAR-TAF: